This demonstration page uses our WeatherBlox Daily Observations layout. Learn more.

Hourly Observations for March 20, 2016

Temp ( °F °C ) Dew Point ( °F °C ) Humidity (%) Winds ( mph kmh ) Pressure ( in mb ) Visibility ( mi km ) Precip ( " mm )
12:15 am 00:15 Clear 24 -4.5 16 -9 71 71 NNW 9 15 30.53 1034 10 16.0934 0 0
12:35 am 00:35 Clear 23 -4.8 15 -9.2 72 72 NNW 8 13 30.53 1034 10 16.0934 0 0
12:55 am 00:55 Clear 23 -5.2 15 -9.4 73 73 NNW 7 11 30.53 1034 10 16.0934 0 0
1:15 am 01:15 Clear 22 -5.8 15 -9.7 74 74 NNW 7 11 30.53 1034 10 16.0934 0 0
1:35 am 01:35 Clear 21 -6 14 -9.8 75 75 NNW 6 9 30.53 1034 10 16.0934 0 0
1:55 am 01:55 Clear 20 -6.9 14 -10.1 78 78 NNW 5 7 30.56 1035 10 16.0934 0 0
2:15 am 02:15 Clear 19 -7 14 -10 79 79 NNW 6 9 30.56 1035 10 16.0934 0 0
2:35 am 02:35 Clear 19 -7.4 13 -10.4 79 79 WNW 5 7 30.56 1035 10 16.0934 0 0
2:55 am 02:55 Clear 17 -8.2 13 -10.8 82 82 WNW 3 6 30.56 1035 10 16.0934 0 0
3:15 am 03:15 Clear 16 -9 11 -11.4 83 83 WNW 5 7 30.59 1036 10 16.0934 0 0
4:15 am 04:15 Clear 18 -8 13 -10.4 83 83 WNW 5 7 30.56 1035 10 16.0934 0 0
4:35 am 04:35 Clear 17 -8.4 13 -10.8 83 83 WNW 6 9 30.56 1035 10 16.0934 0 0
4:55 am 04:55 Clear 16 -9 12 -11.2 84 84 WNW 5 7 30.59 1036 10 16.0934 0 0
5:15 am 05:15 Clear 16 -8.8 13 -10.8 86 86 NW 6 9 30.56 1035 10 16.0934 0 0
5:35 am 05:35 Clear 16 -8.9 12 -10.9 86 86 WNW 6 9 30.56 1035 10 16.0934 0 0
5:55 am 05:55 Clear 15 -9.2 12 -11.2 86 86 WNW 6 9 30.59 1036 10 16.0934 0 0
6:15 am 06:15 Clear 19 -7.5 15 -9.5 86 86 W 8 13 30.56 1035 10 16.0934 0 0
6:35 am 06:35 Clear 18 -7.9 14 -10.2 84 84 WNW 7 11 30.59 1036 10 16.0934 0 0
6:55 am 06:55 Clear 17 -8.6 13 -10.7 85 85 WNW 6 9 30.59 1036 10 16.0934 0 0
7:15 am 07:15 Clear 17 -8.5 13 -10.5 86 86 WNW 7 11 30.59 1036 10 16.0934 0 0
7:35 am 07:35 Clear 17 -8.6 13 -10.6 86 86 WNW 5 7 30.59 1036 10 16.0934 0 0
7:55 am 07:55 Sunny 15 -9.6 11 -11.5 86 86 WNW 5 7 30.62 1037 10 16.0934 0 0
8:15 am 08:15 Sunny 17 -8.3 14 -10.2 86 86 NW 3 6 30.59 1036 10 16.0934 0 0
8:35 am 08:35 Sunny 19 -7.1 15 -9.3 85 85 NW 5 7 30.59 1036 10 16.0934 0 0
9:15 am 09:15 Sunny 26 -3.1 20 -6.5 78 78 NW 6 9 30.59 1036 10 16.0934 0 0
9:35 am 09:35 Sunny 28 -2 21 -5.9 75 75 NNW 3 6 30.53 1034 10 16.0934 0 0
9:55 am 09:55 Sunny 30 -0.9 21 -5.9 69 69 NNW 3 6 30.53 1034 10 16.0934 0 0
10:15 am 10:15 Sunny 32 0.1 20 -6.6 61 61 N 3 6 30.53 1034 10 16.0934 0 0
10:35 am 10:35 Sunny 33 0.6 18 -7.6 55 55 Calm 30.5 1033 10 16.0934 0 0
11:15 am 11:15 Sunny 35 1.5 17 -8.1 49 49 NW 7 11 30.5 1033 10 16.0934 0 0
11:35 am 11:35 Sunny 35 1.9 18 -8 48 48 Calm 30.5 1033 10 16.0934 0 0
11:55 am 11:55 Sunny 36 2.2 17 -8.2 47 47 SW 3 6 30.48 1032 10 16.0934 0 0
12:15 pm 12:15 Sunny 37 3 17 -8.2 44 44 W 5 7 30.45 1031 10 16.0934 0 0
1:35 pm 13:35 Sunny 41 4.8 17 -8.5 38 38 SSW 7 11 30.42 1030 10 16.0934 0 0
1:55 pm 13:55 Sunny 41 5.2 16 -9.1 35 35 SSW 3 6 30.39 1029 10 16.0934 0 0
2:15 pm 14:15 Sunny 43 6.2 15 -9.2 33 33 WSW 7 11 30.36 1028 10 16.0934 0 0
2:35 pm 14:35 Sunny 44 6.5 15 -9.6 31 31 WSW 8 13 30.33 1027 10 16.0934 0 0
3:15 pm 15:15 Sunny 45 7.3 16 -8.7 31 31 SW 7 11 30.33 1027 10 16.0934 0 0
3:35 pm 15:35 Sunny 47 8.1 15 -9.6 28 28 SSW 10 17 30.3 1026 10 16.0934 0 0
3:55 pm 15:55 Sunny 47 8.6 15 -9.4 27 27 SW 8 13 30.27 1025 10 16.0934 0 0
4:15 pm 16:15 Sunny 48 9.1 15 -9.7 26 26 SSW 7 11 30.24 1024 10 16.0934 0 0
4:35 pm 16:35 Sunny 48 9 15 -9.6 26 26 SW 8 13 30.24 1024 10 16.0934 0 0
4:55 pm 16:55 Sunny 49 9.4 13 -10.3 24 24 SW 10 17 30.24 1024 10 16.0934 0 0
5:15 pm 17:15 Sunny 49 9.5 13 -10.4 24 24 SSW 7 11 30.21 1023 10 16.0934 0 0
5:35 pm 17:35 Sunny 50 10.1 14 -10.2 23 23 SW 10 17 30.21 1023 10 16.0934 0 0
5:55 pm 17:55 Sunny 50 10.1 13 -10.5 22 22 SW 9 15 30.21 1023 10 16.0934 0 0
6:15 pm 18:15 Sunny 50 10 13 -10.6 22 22 SW 9 15 30.21 1023 10 16.0934 0 0
6:35 pm 18:35 Sunny 50 10 13 -10.6 22 22 SSW 8 13 30.21 1023 10 16.0934 0 0
6:55 pm 18:55 Sunny 50 9.9 12 -11 22 22 S 9 15 30.21 1023 10 16.0934 0 0
7:15 pm 19:15 Sunny 49 9.4 12 -11 23 23 S 7 11 30.18 1022 10 16.0934 0 0
7:35 pm 19:35 Sunny 47 8.2 13 -10.5 26 26 S 7 11 30.18 1022 10 16.0934 0 0
7:55 pm 19:55 Clear 43 6.3 13 -10.7 29 29 S 6 9 30.21 1023 10 16.0934 0 0
8:15 pm 20:15 Clear 40 4.7 12 -11.1 31 31 SSE 8 13 30.21 1023 10 16.0934 0 0
8:35 pm 20:35 Clear 38 3.4 12 -11 34 34 SSE 8 13 30.24 1024 10 16.0934 0 0
8:55 pm 20:55 Clear 37 2.8 13 -10.6 37 37 SSE 9 15 30.24 1024 10 16.0934 0 0
9:15 pm 21:15 Clear 36 2.2 13 -10.3 39 39 SSE 8 13 30.24 1024 10 16.0934 0 0
9:35 pm 21:35 Clear 37 3 15 -9.7 39 39 S 10 17 30.24 1024 10 16.0934 0 0
9:55 pm 21:55 Clear 36 2 14 -9.8 42 42 S 8 13 30.24 1024 10 16.0934 0 0
10:15 pm 22:15 Clear 34 1.1 15 -9.2 47 47 S 8 13 30.24 1024 10 16.0934 0 0
10:35 pm 22:35 Clear 34 1.2 17 -8.5 49 49 S 8 13 30.21 1023 10 16.0934 0 0
10:55 pm 22:55 Clear 33 0.8 18 -8 52 52 S 8 13 30.21 1023 10 16.0934 0 0
11:15 pm 23:15 Clear 34 1 19 -7.5 53 53 S 8 13 30.21 1023 10 16.0934 0 0
11:35 pm 23:35 Clear 35 1.5 19 -7.2 53 53 S 9 15 30.21 1023 10 16.0934 0 0
11:55 pm 23:55 Clear 34 1.1 19 -7.1 55 55 S 8 13 30.21 1023 10 16.0934 0 0

Powered by AerisWeather